TimeEDT,TemperatureF,Dew PointF,Humidity,Sea Level PressureIn,VisibilityMPH,Wind Direction,Wind SpeedMPH,Gust SpeedMPH,PrecipitationIn,Events,Conditions,WindDirDegrees,DateUTC
12:54 AM,55.9,52.0,87,29.86,8.0,South,10.4,-,0.02,Rain,Light Rain,170,2013-03-12 04:54:00
1:54 AM,55.9,52.0,87,29.84,10.0,SSE,6.9,-,0.03,Rain,Light Rain,160,2013-03-12 05:54:00
2:54 AM,55.0,53.1,93,29.83,7.0,SSE,5.8,-,0.04,Rain,Light Rain,160,2013-03-12 06:54:00
3:54 AM,55.0,53.1,93,29.79,7.0,East,4.6,-,0.13,Rain,Light Rain,80,2013-03-12 07:54:00
4:54 AM,55.0,53.1,93,29.75,6.0,East,5.8,-,0.06,Rain,Rain,100,2013-03-12 08:54:00
5:39 AM,55.4,53.6,94,29.74,7.0,ESE,6.9,-,0.08,Rain,Light Rain,120,2013-03-12 09:39:00
5:54 AM,55.0,53.1,93,29.73,4.0,ESE,6.9,-,0.11,Rain,Light Rain,110,2013-03-12 09:54:00
6:54 AM,55.0,53.1,93,29.74,5.0,NNW,3.5,-,0.06,Rain,Light Rain,330,2013-03-12 10:54:00
7:54 AM,52.0,46.0,80,29.76,10.0,WNW,11.5,-,0.04,Rain,Light Rain,300,2013-03-12 11:54:00
8:22 AM,51.8,44.6,76,29.79,10.0,WNW,10.4,-,0.00,,Mostly Cloudy,290,2013-03-12 12:22:00
8:54 AM,51.1,43.0,74,29.81,10.0,West,10.4,-,0.00,,Mostly Cloudy,280,2013-03-12 12:54:00
9:54 AM,50.0,39.0,66,29.85,10.0,WNW,20.7,26.5,N/A,,Partly Cloudy,290,2013-03-12 13:54:00
10:54 AM,50.0,37.0,61,29.87,10.0,WNW,15.0,26.5,N/A,,Partly Cloudy,290,2013-03-12 14:54:00
11:54 AM,51.1,36.0,56,29.88,10.0,WNW,21.9,28.8,N/A,,Partly Cloudy,300,2013-03-12 15:54:00
12:54 PM,51.1,36.0,56,29.88,10.0,NW,15.0,24.2,N/A,,Scattered Clouds,310,2013-03-12 16:54:00
1:54 PM,52.0,34.0,50,29.87,10.0,NW,17.3,27.6,N/A,,Scattered Clouds,320,2013-03-12 17:54:00
2:54 PM,53.1,32.0,45,29.88,10.0,NW,25.3,33.4,N/A,,Partly Cloudy,310,2013-03-12 18:54:00
3:54 PM,53.1,32.0,45,29.88,10.0,WNW,16.1,24.2,N/A,,Partly Cloudy,300,2013-03-12 19:54:00
4:54 PM,54.0,28.9,38,29.88,10.0,WNW,17.3,-,N/A,,Clear,300,2013-03-12 20:54:00
5:54 PM,53.1,28.9,40,29.89,10.0,WNW,13.8,-,N/A,,Clear,300,2013-03-12 21:54:00
6:54 PM,51.1,28.9,43,29.91,10.0,WNW,12.7,-,N/A,,Clear,290,2013-03-12 22:54:00
7:54 PM,48.9,28.9,46,29.94,10.0,West,13.8,-,N/A,,Clear,280,2013-03-12 23:54:00
8:54 PM,46.0,28.9,51,29.98,10.0,WNW,10.4,-,N/A,,Clear,300,2013-03-13 00:54:00
9:54 PM,44.1,28.0,53,30.00,10.0,WNW,5.8,-,N/A,,Clear,300,2013-03-13 01:54:00
10:54 PM,42.1,28.0,58,30.01,10.0,NW,13.8,-,N/A,,Clear,320,2013-03-13 02:54:00
11:54 PM,41.0,27.0,57,30.02,10.0,NNW,6.9,-,N/A,,Clear,330,2013-03-13 03:54:00